{"data":{"norad_id":64246,"intl_designator":"2025-119P","name":"STARLINK-34203","alt_names":[],"object_type":"PAYLOAD","status":"ACTIVE","operator":null,"country":"US","launch_date":"2025-06-03","launch_site_code":"AFETR","launch_vehicle":null,"mission":null,"orbit_class":"UNKNOWN","rcs_meters":null,"size_class":null,"mass_kg":null,"dimensions":null,"purposes":["comms"],"wikipedia_slug":null,"has_3d_model":false,"image_url":null,"decayed_at":null,"tle_current":{"epoch":"2026-09-20T08:47:43.927296Z","epoch_age_seconds":149196,"freshness":"FRESH","line1":"1 64246U 25119P   26263.36648064  .00011796  00000+0  43738-3 0  9997","line2":"2 64246  42.9986 287.5358 0000123 336.8509  23.2337 15.27587076 73952","mean_motion":15.27587076,"eccentricity":1.23e-5,"inclination_deg":42.9986,"raan_deg":287.5358,"arg_perigee_deg":336.8509,"mean_anomaly_deg":23.2337,"bstar":0.00043738,"rev_number":7395,"period_min":94.266312056701,"perigee_km":482.94351570349,"apogee_km":483.11230036023,"semimajor_km":6861.1649080319,"source":"CELESTRAK","updated_at":"2026-09-21T09:00:35.278997Z"}}}